Location: Seattle
(47.6064°N, 122.3308°W)
Time: 01:05:49
(UTC-07:00)

SEEDS - Pass Details

Date: 02 April 2023
Orbit: 568 x 587 km, 97.7° (Epoch: 28 May)

Event Time Altitude Azimuth Distance (km) Brightness Sun altitude
Rises 05:36:28 0° 9° (N) 2,839 ? -12.2°
Maximum altitude 05:42:46 55° 288° (WNW) 716 ? -11.2°
Drops below altitude 10° 05:46:50 10° 210° (SSW) 1,915 ? -10.5°
Enters shadow 05:47:31 - 209° (SSW) 2,197 ? -10.4°
